Regional Weather Roundup
Issued by NWS

Home | Current Version | Previous Version | Graphics & Text | Print | Product List | Glossary On
Versions: 1 2 3 4 5 6 7 8 9 10 11 12 13 14 15 16 17 18 19 20 21 22 23 24 25 26 27 28 29 30 31 32 33 34 35 36 37 38 39 40 41 42 43 44 45 46 47 48 49 50
000
ASUS45 KTFX 041219
RWRMT
MONTANA REGIONAL WEATHER ROUNDUP
NATIONAL WEATHER SERVICE GREAT FALLS MT
600 AM MDT FRI SEP 04 2015

NOTE: "FAIR" INDICATES FEW OR NO CLOUDS BELOW 12000 FEET WITH NO
SIGNIFICANT WEATHER AND/OR OBSTRUCTIONS TO VISIBILITY.

MTZ001>007-043-041300-
WEST OF THE DIVIDE

CITY           SKY/WX    TMP DP  RH WIND       PRES   REMARKS
KALISPELL        N/A    N/A N/A N/A MISG      29.97S
MISSOULA       CLOUDY    43  42  97 CALM      29.97F
BUTTE          LGT RAIN  44  42  93 SE5       29.98F
MULLAN PASS    CLEAR     37  32  82 N3        29.97F
DEER LODGE       N/A     45  45 100 CALM      30.00F
EUREKA           N/A     45  43  93 CALM      30.01S
HAMILTON         N/A     45  45 100 NW5       29.95F
LIBBY            N/A     45  39  81 CALM      30.00R
PLAINS           N/A     46  41  83 CALM      29.98S
RONAN            N/A     43  41  93 CALM      30.01S
$$

MTZ008-052>055-041300-
SOUTHWEST MONTANA

CITY           SKY/WX    TMP DP  RH WIND       PRES   REMARKS
BOZEMAN        PTCLDY    46  44  93 CALM      29.94R
DILLON         CLOUDY    47  43  86 CALM      29.95R
W YELLOWSTONE  PTCLDY    36  36 100 CALM      29.96S FOG
THREE FORKS      N/A     51  51 100 NW7       29.95S
TWIN BRIDGES     N/A     47  41  80 N13       29.93S
$$

MTZ009-010-012-014-046-048-049-054-041300-
EAST SLOPES AND CENTRAL MONTANA

CITY           SKY/WX    TMP DP  RH WIND       PRES   REMARKS
CUT BANK       CLOUDY    48  46  93 CALM      29.98S
GREAT FALLS    CLOUDY    49  46  90 NW5       29.96R
MALMSTROM AFB  CLOUDY    49  48  95 NE2       29.95R
HELENA         CLOUDY    50  47  89 E3        29.96R
CONRAD           N/A     50  50 100 E1        30.00F
$$

MTZ011-013-016-021-045-047-050-051-041300-
NORTH CENTRAL MONTANA

CITY           SKY/WX    TMP DP  RH WIND       PRES   REMARKS
HAVRE          LGT RAIN  51  47  86 E8        29.97F
LEWISTOWN      CLOUDY    49  46  90 N6        29.98S
N BAR RANCH    PTSUNNY   46  45  93 NW9G16    29.99S
CHINOOK          N/A     52  48  87 CALM      30.00F
FORT BENTON      N/A     52  48  87 NE5       29.97R
$$

MTZ017>020-022>027-061-062-041300-
NORTHEAST MONTANA

CITY           SKY/WX    TMP DP  RH WIND       PRES   REMARKS
GLASGOW        PTCLDY    54  42  64 N15       29.90F
JORDAN           N/A     53  42  66 N15       29.90R
SIDNEY         CLOUDY    63  50  63 NW14        N/A
WOLF POINT     MOCLDY    59  43  55 VRB5      29.88R
MALTA            N/A     50  42  73 N13       29.92F
PLENTYWOOD       N/A     54  48  82 NW12      29.84R
POPLAR           N/A     55  46  71 W5        29.88R
SCOBEY           N/A     54  39  56 NW15      29.90R
$$

MTZ028>42-056>058-041300-
SOUTHCENTRAL AND SOUTHEAST MONTANA

CITY           SKY/WX    TMP DP  RH WIND       PRES   REMARKS
BAKER          CLOUDY    65  61  87 NE7       29.84S
BILLINGS       MOCLDY    51  46  83 NW8       29.94R
LIVINGSTON     CLOUDY    49  44  83 NW3       29.94S
MILES CITY     PTCLDY    59  45  59 N12       29.84F
EKALAKA          N/A     62  56  81 CALM      29.85R
FORSYTH          N/A     57  43  58 N5        29.86S
LAUREL           N/A     51  44  77 NW5       29.94R
ROUNDUP          N/A     50  42  73 N7        29.87R
$$

REGIONAL REPORTS...DAKOTAS

CITY           SKY/WX    TMP DP  RH WIND       PRES   REMARKS
WILLISTON      CLOUDY    63  52  67 NE14      29.76F
MINOT          CLOUDY    69  67  93 NW10      29.79R
DICKINSON      CLOUDY    64  58  80 NE5       29.78R
BEACH          CLOUDY    64  55  72 SE5       29.85R
CROSBY         TSTM      59  50  72 E17G25    29.77F
BISMARCK         N/A     71  70  96 NE8       29.73R
GRAND FORKS    MOCLDY    73  70  90 SE12      29.76F
FARGO          PTCLDY    74  71  91 E10       29.76S
BUFFALO SD       N/A     63  60  90 NE9       29.73F
RAPID CITY     PTCLDY    66  56  70 CALM      29.79R
$$

REGIONAL REPORTS...WYOMING/IDAHO/WASHINGTON

CITY           SKY/WX    TMP DP  RH WIND       PRES   REMARKS
GILLETTE       CLEAR     54  41  61 CALM      29.88R
SHERIDAN       PTCLDY    56  43  61 W7        29.91R
BUFFALO WY     CLEAR     55  45  68 N10       29.94R
CODY           CLEAR     48  45  87 NE7       29.95R
YELLOWSTONE LA   N/A     40  38  93 CALM      30.03S
IDAHO FALLS    PTCLDY    52  39  61 SW12      29.88R
SALMON         CLOUDY    46  43  87 N3        29.96S
BOISE          MOCLDY    52  39  61 W7        29.84S
SPOKANE        MOCLDY    45  35  68 NE3       29.95S
$$

REGIONAL REPORTS...ALBERTA

CITY           SKY/WX    TMP DP  RH WIND       PRES   REMARKS
EDMONTON       CLOUDY    43  37  81 N6        30.11F
CALGARY        MOCLDY    37  34  87 N16       30.06R WCI  28
LETHBRIDGE     MOCLDY    43  41  93 W17       30.00R
MEDICINE HAT   LGT RAIN  50  48  93 NE3       29.99R
WATERTON GATE    N/A     43  39  87 E3          N/A
CARDSTON         N/A     43  41  93 N7          N/A
MILK RIVER       N/A     48  46  93 S3          N/A
$$

REGIONAL REPORTS...SASKATCHEWAN

CITY           SKY/WX    TMP DP  RH WIND       PRES   REMARKS
SWIFT CURRENT  LGT RAIN  48  48 100 NW6       30.02R
REGINA         MOCLDY    52  48  87 N8        29.94R
SASKATOON      MOCLDY    50  45  81 N7        30.03S
CYPRESS HILLS    N/A     45  43  93 E6          N/A
VAL MARIE        N/A     48  45  87 N9          N/A
ROCKGLEN         N/A     50  45  81 N16G22      N/A
ASSINIBOIA       N/A     39  39 100 N5          N/A
$$


USA.gov is the U.S. government's official web portal to all federal, state and local government web resources and services.